{"data":{"norad_id":63942,"epoch":"2026-05-25T03:11:35.081088Z","epoch_age_seconds":53780,"freshness":"FRESH","line1":"1 63942U 25098S   26145.13304492  .00006622  00000+0  56206-3 0  9999","line2":"2 63942  70.0005  81.6848 0002793 271.6095  88.4745 14.98344677 57993","mean_motion":14.98344677,"eccentricity":0.0002793,"inclination_deg":70.0005,"raan_deg":81.6848,"arg_perigee_deg":271.6095,"mean_anomaly_deg":88.4745,"bstar":0.00056206,"rev_number":5799,"period_min":96.106057711846,"perigee_km":570.06932770528,"apogee_km":573.95168010096,"semimajor_km":6950.1475039031,"source":"CELESTRAK","updated_at":"2026-05-25T13:38:20.186423Z"}}